TimeCST,TemperatureF,Dew PointF,Humidity,Sea Level PressureIn,VisibilityMPH,Wind Direction,Wind SpeedMPH,Gust SpeedMPH,PrecipitationIn,Events,Conditions,WindDirDegrees,DateUTC
6:00 AM,74,73,94,29.94,12,Calm,Calm,,,,Overcast,,2012-10-09 12:00:00
6:00 AM,73.4,71.6,94,29.92,6.2,Calm,Calm,-,N/A,,Mostly Cloudy,0,2012-10-09 12:00:00
7:00 AM,80.6,73.4,79,29.94,6.2,Calm,Calm,-,N/A,,Scattered Clouds,0,2012-10-09 13:00:00
8:00 AM,80.6,73.4,79,29.96,6.2,SE,3.5,-,N/A,,Scattered Clouds,140,2012-10-09 14:00:00
9:00 AM,79,74,79,29.97,12,SSE,3.5,,,,Overcast,150,2012-10-09 15:00:00
9:00 AM,80.6,73.4,79,29.96,6.2,SSE,3.5,-,N/A,,Mostly Cloudy,150,2012-10-09 15:00:00
10:00 AM,84.2,73.4,70,29.95,6.2,South,3.5,-,N/A,,Mostly Cloudy,170,2012-10-09 16:00:00
11:00 AM,82.4,73.4,74,29.94,6.2,South,4.6,-,N/A,,Mostly Cloudy,180,2012-10-09 17:00:00
12:00 PM,80,75,82,29.92,9,South,6.9,,,Rain,Light Rain,190,2012-10-09 18:00:00
12:00 PM,-9999,-9999,N/A,29.91,6.2,South,6.9,-,N/A,,Drizzle,190,2012-10-09 18:00:00
1:00 PM,78.8,75.2,89,29.89,6.2,WSW,5.8,-,N/A,,Drizzle,240,2012-10-09 19:00:00
2:00 PM,78.8,75.2,89,29.87,6.2,SSW,4.6,-,N/A,Rain,Light Rain,200,2012-10-09 20:00:00
3:00 PM,79,76,87,29.87,12,SW,4.6,,,Rain,Light Drizzle,220,2012-10-09 21:00:00
3:00 PM,78.8,75.2,89,29.85,6.2,SW,4.6,-,N/A,,Drizzle,220,2012-10-09 21:00:00
4:00 PM,80.6,75.2,84,29.85,6.2,SSE,3.5,-,N/A,,Mostly Cloudy,150,2012-10-09 22:00:00
5:00 PM,78.8,75.2,89,29.86,6.2,WSW,4.6,-,N/A,,Mostly Cloudy,240,2012-10-09 23:00:00
6:00 PM,78,75,87,29.89,12,SW,3.5,,,,Overcast,220,2012-10-10 00:00:00
6:00 PM,77.0,75.2,94,29.88,6.2,SW,3.5,-,N/A,,Mostly Cloudy,220,2012-10-10 00:00:00
7:00 PM,77.0,73.4,89,29.91,6.2,SSE,3.5,-,N/A,,Mostly Cloudy,150,2012-10-10 01:00:00
8:00 PM,75.2,73.4,94,29.93,6.2,SE,3.5,-,N/A,,Mostly Cloudy,140,2012-10-10 02:00:00